This demonstration page uses our WeatherBlox Daily Observations layout. Learn more.

Left ArrowRight Arrow

39.08367, -84.50855

Hourly Observations for January 20, 2021

Temp ( °F °C ) Dew Point ( °F °C ) Humidity (%) Winds ( mph kmh ) Pressure ( in mb ) Visibility ( mi km ) Precip ( " mm )
12:53 am 00:53 Cloudy 39 3.9 25 -3.9 57 57 W 17 28 30.14 1021 10 16.0934 0 0
1:53 am 01:53 Cloudy 38 3.3 23 -5 55 55 W 23 37 30.16 1021 10 16.0934 0 0
2:53 am 02:53 Cloudy 38 3.3 24 -4.4 57 57 W 15 24 30.18 1022 10 16.0934 0 0
3:53 am 03:53 Cloudy 37 2.8 24 -4.4 59 59 W 18 30 30.19 1022 10 16.0934 0 0
4:53 am 04:53 Partly Cloudy 33 0.6 18 -7.8 54 54 NW 12 19 30.24 1024 10 16.0934 0 0
5:53 am 05:53 Cloudy 32 0 18 -7.8 56 56 WNW 12 19 30.26 1025 10 16.0934 0 0
6:53 am 06:53 Cloudy 31 -0.6 19 -7.2 61 61 W 13 20 30.27 1025 10 16.0934 0 0
7:53 am 07:53 Cloudy 31 -0.6 21 -6.1 67 67 W 12 19 30.29 1026 10 16.0934 0 0
8:00 am 08:00 Cloudy 31 -0.6 21 -6.1 67 67 W 12 19 30.31 1026 10 16.0934 0 0
8:07 am 08:07 Cloudy 31 -0.6 21 -6.1 67 67 W 9 15 30.31 1026 10 16.0934 0 0
8:53 am 08:53 Cloudy 31 -0.6 21 -6.1 67 67 W 12 19 30.3 1026 10 16.0934 0 0
9:00 am 09:00 Cloudy 31 -0.6 21 -6.1 67 67 W 10 17 30.32 1027 10 16.0934 0 0
9:53 am 09:53 Cloudy 31 -0.6 20 -6.7 64 64 W 12 19 30.32 1027 10 16.0934 0 0
10:53 am 10:53 Mostly Cloudy 33 0.6 20 -6.7 58 58 WNW 7 11 30.34 1027 10 16.0934 0 0
11:53 am 11:53 Mostly Cloudy 35 1.7 20 -6.7 54 54 VRB 7 11 30.33 1027 10 16.0934 0 0
12:53 pm 12:53 Partly Cloudy 36 2.2 19 -7.2 50 50 SSW 12 19 30.29 1026 10 16.0934 0 0
1:53 pm 13:53 Sunny 37 2.8 17 -8.3 44 44 SSW 9 15 30.23 1024 10 16.0934 0 0
2:53 pm 14:53 Sunny 38 3.3 16 -8.9 41 41 VRB 3 6 30.17 1022 10 16.0934 0 0
3:53 pm 15:53 Sunny 39 3.9 18 -7.8 43 43 SW 12 19 30.19 1022 10 16.0934 0 0
4:53 pm 16:53 Sunny 37 2.8 17 -8.3 44 44 SW 13 20 30.16 1022 10 16.0934 0 0
5:53 pm 17:53 Clear 34 1.1 17 -8.3 50 50 SSW 10 17 30.14 1021 10 16.0934 0 0
6:53 pm 18:53 Clear 29 -1.7 17 -8.3 61 61 SSW 8 13 30.14 1021 10 16.0934 0 0
7:53 pm 19:53 Clear 29 -1.7 17 -8.3 61 61 S 6 9 30.12 1020 10 16.0934 0 0
8:53 pm 20:53 Clear 29 -1.7 17 -8.3 61 61 Calm 30.09 1019 10 16.0934 0 0
9:53 pm 21:53 Clear 26 -3.3 16 -8.9 66 66 SSW 8 13 30.06 1018 10 16.0934 0 0
10:53 pm 22:53 Cloudy 32 0 17 -8.3 54 54 SSW 8 13 30.02 1017 10 16.0934 0 0
11:53 pm 23:53 Cloudy 35 1.7 16 -8.9 46 46 SW 12 19 30 1016 10 16.0934 0 0

Powered by AerisWeather